Lid_Strength_Index
3 3 3 2 2 2 2 2 3 3 3 3 3 3 3 3 2 5 9 5 3 -2 -1 1 3 4 5 7 7 7 12 13 11 11 10 6 8 6 5 6 6 5 5 5 6
3 3 3 3 3 2 2 2 3 3 3 3 3 3 3 3 5 6 3 -1 -2 -2 2 4 5 4 7 8 8 10 13 12 9 7 8 7 7 7 8 8 7 7 7 7 6
1 2 3 3 3 3 3 3 3 3 4 4 4 3 3 3 8 9 -1 -1 -2 -1 3 3 4 5 8 8 8 10 11 10 9 7 6 7 8 7 8 9 7 7 8 7 7
2 2 3 3 3 3 3 3 4 4 4 4 3 3 3 4 13 8 -2 -2 -1 1 4 6 7 8 9 9 8 10 9 9 9 9 8 7 6 8 7 7 5 7 7 7 7
2 2 1 3 3 3 3 3 4 4 4 4 3 3 5 10 8 3 -1 -1 2 3 6 7 7 7 8 8 9 9 9 9 9 7 6 6 7 8 8 5 5 7 7 7 7
2 3 1 2 2 3 3 4 4 4 4 4 3 3 6 12 9 4 1 3 3 5 6 7 8 6 7 9 9 8 9 9 9 7 7 8 8 7 7 5 5 7 7 7 7
2 2 2 1 2 3 3 3 4 4 4 4 4 3 6 9 6 6 5 5 4 5 7 6 6 7 7 8 7 8 10 10 8 8 8 7 10 10 6 5 6 6 7 6 6
2 2 2 2 2 2 3 3 3 4 4 4 2 5 9 5 6 6 8 8 5 5 6 7 6 7 7 7 8 10 11 13 11 8 8 9 13 9 6 6 7 8 9 9 8
2 2 2 2 2 3 3 3 3 3 3 3 6 6 11 4 7 5 6 7 7 6 6 5 7 8 8 10 12 11 14 13 13 7 8 9 12 8 6 8 10 10 10 10 9
2 2 2 2 3 3 3 4 4 3 3 2 2 8 8 10 7 7 7 7 8 8 8 9 10 11 11 12 14 14 14 13 14 10 9 11 12 9 8 10 11 11 10 10 10
2 2 3 2 3 3 5 8 5 6 4 9 10 8 7 5 5 6 7 8 8 8 12 10 12 12 11 10 10 11 12 13 12 9 11 11 11 10 10 11 11 11 10 11 12
2 2 3 3 3 3 6 10 5 4 8 4 5 6 5 5 7 6 6 9 10 12 11 12 12 9 8 9 10 11 12 12 10 9 11 12 12 11 10 10 11 11 12 12 12
2 2 3 3 4 6 9 7 4 5 8 6 4 5 4 5 7 7 7 8 10 11 11 13 10 7 9 10 10 11 12 12 12 10 10 12 13 12 11 11 11 11 11 11 13
3 3 3 3 7 7 6 4 3 4 11 9 7 5 4 5 8 6 6 8 9 10 10 11 9 9 10 11 10 12 10 9 11 12 16 12 19 13 12 12 11 11 12 13 13
3 3 3 3 8 8 4 4 3 4 18 8 7 3 5 8 8 8 6 7 9 9 9 11 10 10 11 10 10 11 8 9 10 12 13 13 16 14 11 12 12 11 12 12 12
2 4 3 5 6 6 5 5 4 13 19 10 7 8 8 8 8 8 8 6 7 9 9 10 10 10 10 9 10 9 11 12 13 15 16 14 15 15 14 12 11 10 11 13 13
3 4 5 4 7 6 4 4 13 17 9 11 10 9 10 10 9 9 9 10 11 12 13 11 11 10 9 11 10 11 13 16 17 17 19 12 15 14 11 10 10 11 13 13 13
3 5 6 5 5 6 4 9 16 12 11 9 10 10 11 10 10 9 10 11 10 11 13 13 13 11 9 10 11 12 13 16 18 19 18 13 17 15 11 10 10 11 12 13 13
4 8 8 6 5 6 7 15 13 11 8 11 11 12 12 10 10 10 11 10 10 9 12 13 13 10 9 9 10 11 13 11 14 14 17 16 15 12 11 12 12 12 12 12 12
9 9 6 4 5 5 9 12 11 8 8 10 13 11 13 12 11 11 11 9 9 9 9 10 13 10 9 8 9 10 10 13 14 19 21 18 17 16 13 13 12 12 12 11 11
9 9 5 4 3 7 12 11 9 6 7 9 11 11 11 11 11 11 10 9 8 9 9 10 12 11 10 11 12 12 13 12 13 14 19 21 18 11 12 11 12 11 10 11 11
10 10 4 3 10 10 12 9 7 9 7 7 8 9 10 10 10 10 10 9 8 8 10 9 11 14 13 9 10 12 13 12 16 16 16 16 17 10 10 10 9 9 10 11 11
11 6 2 5 16 13 10 9 9 10 8 9 9 8 8 9 11 9 9 8 8 8 9 9 12 15 13 11 10 12 12 12 12 12 16 17 17 10 10 9 9 10 10 11 11
8 10 7 6 9 12 12 11 12 9 9 8 9 8 9 10 8 10 9 8 8 8 7 8 11 13 15 13 12 13 12 11 12 15 16 15 14 12 11 10 10 10 10 11 11
8 9 8 11 10 9 10 11 11 11 8 8 9 9 9 11 10 10 9 9 8 8 8 10 13 13 13 12 12 12 12 12 12 12 15 14 13 11 10 9 9 9 10 11 12
9 8 10 11 8 9 9 11 11 11 9 10 10 8 9 10 10 10 10 10 10 9 9 9 13 13 13 12 12 13 11 11 11 11 12 12 13 9 8 9 9 9 10 11 11
6 6 6 10 11 10 11 9 10 9 7 7 8 9 9 8 8 8 9 9 9 9 10 10 11 13 15 11 11 14 12 11 11 10 11 14 11 9 10 9 10 10 10 10 10